User: anonymous   Login
Location: Theydon Bois
(51.6750°N, 0.1050°E)
Time: 09:25:55
(UTC+00:00)
Language:

H-2A R/B - Orbit

View from above orbital plane
View from above orbital plane
View from above satellite
View from above satellite

Ground track
Ground track

The orbit data is extracted from the following two-line orbital elements,

1 36105U 09066B   17322.74700728 0.00001100  00000-0  60581-4 0    05
2 36105  97.3157 348.6554 0028660 163.5395 196.4604 15.13711924    02
Epoch (UTC): 18 November 2017 17:55:41
Eccentricity: 0.0028660
inclination: 97.3157°
perigee height: 505 km
apogee height: 544 km
right ascension of ascending node: 348.6554°
argument of perigee: 163.5395°
revolutions per day: 15.13711924
mean anomaly at epoch: 196.4604°
orbit number at epoch: 0

The dashed part of the orbit path shows where the satellite is in the earth's shadow,  

DLR